,,,PA_Meas_PMT16A,,PR_Meas_QMR101_102,,RH_Meas_QMH101,,SR_Meas_QMS101,,TA_Meas_QMH101,,GenWind,,GenWind,
date,time,status,PA,status,PR,status,RH,status,SR,status,TA,status,DirAvg,status,SpdAvg,
2011-03-07, 00:00:05,VALID,1001.51,VALID,0,VALID,91.4639,VALID,0,VALID,22.9403,VALID,52,VALID,0,
2011-03-07, 00:01:05,VALID,1001.52,VALID,0,VALID,91.4944,VALID,0,VALID,22.9598,VALID,52,VALID,0,
2011-03-07, 00:02:05,VALID,1001.56,VALID,0,VALID,91.5631,VALID,0,VALID,22.9793,VALID,52,VALID,0,
2011-03-07, 00:03:05,VALID,1001.53,VALID,0,VALID,91.6775,VALID,0,VALID,23.0183,VALID,52,VALID,0.496875,
2011-03-07, 00:04:05,VALID,1001.52,VALID,0,VALID,91.7462,VALID,0,VALID,23.0769,VALID,52,VALID,0.620703,
2011-03-07, 00:05:05,VALID,1001.5,VALID,0,VALID,91.7996,VALID,0,VALID,23.1354,VALID,71,VALID,0.698438,
2011-03-07, 00:06:05,VALID,1001.51,VALID,0,VALID,91.7843,VALID,0,VALID,23.1531,VALID,71,VALID,0.716016,
2011-03-07, 00:07:05,VALID,1001.49,VALID,0,VALID,91.7538,VALID,0,VALID,23.1939,VALID,71,VALID,0.674219,
2011-03-07, 00:08:05,VALID,1001.49,VALID,0,VALID,91.7309,VALID,0,VALID,23.2329,VALID,71,VALID,0.555078,
2011-03-07, 00:09:05,VALID,1001.44,VALID,0,VALID,91.6699,VALID,0,VALID,23.2524,VALID,71,VALID,0.501562,
2011-03-07, 00:10:05,VALID,1001.46,VALID,0,VALID,91.5936,VALID,0,VALID,23.2524,VALID,71,VALID,0.302344,
2011-03-07, 00:11:05,VALID,1001.37,VALID,0,VALID,91.5326,VALID,0,VALID,23.2507,VALID,71,VALID,0,
2011-03-07, 00:12:05,VALID,1001.39,VALID,0,VALID,91.4334,VALID,0,VALID,23.2507,VALID,71,VALID,0,
2011-03-07, 00:13:05,VALID,1001.38,VALID,0,VALID,91.3494,VALID,0,VALID,23.2524,VALID,71,VALID,0,
2011-03-07, 00:14:05,VALID,1001.34,VALID,0,VALID,91.296,VALID,0,VALID,23.2329,VALID,71,VALID,0,
2011-03-07, 00:15:05,VALID,1001.34,VALID,0,VALID,91.2274,VALID,0.112286,VALID,23.2329,VALID,71,VALID,0,
2011-03-07, 00:16:05,VALID,1001.31,VALID,0,VALID,91.1968,VALID,0,VALID,23.2134,VALID,71,VALID,0,
2011-03-07, 00:17:05,VALID,1001.33,VALID,0,VALID,91.1968,VALID,0,VALID,23.2134,VALID,71,VALID,0,
2011-03-07, 00:18:05,VALID,1001.3,VALID,0,VALID,91.174,VALID,0.112286,VALID,23.1726,VALID,71,VALID,0,
2011-03-07, 00:19:05,VALID,1001.26,VALID,0,VALID,91.1968,VALID,0,VALID,23.1744,VALID,71,VALID,0,
2011-03-07, 00:20:05,VALID,1001.27,VALID,0,VALID,91.2274,VALID,0.112286,VALID,23.1744,VALID,71,VALID,0.286719,
2011-03-07, 00:21:05,VALID,1001.27,VALID,0,VALID,91.2655,VALID,0.112286,VALID,23.1531,VALID,71,VALID,0.275391,
2011-03-07, 00:22:05,VALID,1001.29,VALID,0,VALID,91.296,VALID,0.112286,VALID,23.1744,VALID,71,VALID,0.154687,
2011-03-07, 00:23:05,VALID,1001.26,VALID,0,VALID,91.3342,VALID,0,VALID,23.1744,VALID,71,VALID,0.215234,
2011-03-07, 00:24:05,VALID,1001.25,VALID,0,VALID,91.3266,VALID,0,VALID,23.1531,VALID,71,VALID,0.241797,
2011-03-07, 00:25:05,VALID,1001.2,VALID,0,VALID,91.38,VALID,0,VALID,23.1744,VALID,71,VALID,0.265625,
2011-03-07, 00:26:05,VALID,1001.18,VALID,0,VALID,91.4105,VALID,0,VALID,23.1531,VALID,71,VALID,0.283984,
2011-03-07, 00:27:05,VALID,1001.16,VALID,0,VALID,91.4028,VALID,0.112286,VALID,23.1744,VALID,71,VALID,0.458984,
2011-03-07, 00:28:05,VALID,1001.14,VALID,0,VALID,91.4257,VALID,0,VALID,23.1549,VALID,31,VALID,0.448438,
2011-03-07, 00:29:05,VALID,1001.09,VALID,0,VALID,91.4181,VALID,0,VALID,23.1549,VALID,357,VALID,0.3,
2011-03-07, 00:30:05,VALID,1001.1,VALID,0,VALID,91.4181,VALID,0,VALID,23.1549,VALID,357,VALID,0.251563,
2011-03-07, 00:31:05,VALID,1001.12,VALID,0,VALID,91.3723,VALID,0,VALID,23.1566,VALID,357,VALID,0.154687,
2011-03-07, 00:32:05,VALID,1001.13,VALID,0,VALID,91.3494,VALID,0,VALID,23.1566,VALID,357,VALID,0,
2011-03-07, 00:33:05,VALID,1001.13,VALID,0,VALID,91.3342,VALID,0,VALID,23.1371,VALID,357,VALID,0.291016,
2011-03-07, 00:34:05,VALID,1001.13,VALID,0,VALID,91.3189,VALID,0,VALID,23.1176,VALID,357,VALID,0.442969,
2011-03-07, 00:35:05,VALID,1001.15,VALID,0,VALID,91.3571,VALID,0,VALID,23.0964,VALID,357,VALID,0.487891,
2011-03-07, 00:36:05,VALID,1001.1,VALID,0,VALID,91.3952,VALID,0,VALID,23.1176,VALID,357,VALID,0.537891,
2011-03-07, 00:37:05,VALID,1001.11,VALID,0,VALID,91.4334,VALID,0,VALID,23.1159,VALID,357,VALID,0.535937,
2011-03-07, 00:38:05,VALID,1001.11,VALID,0,VALID,91.502,VALID,0,VALID,23.1371,VALID,357,VALID,0.410937,
2011-03-07, 00:39:05,VALID,1001.12,VALID,0,VALID,91.4639,VALID,0,VALID,23.1371,VALID,357,VALID,0.426172,
2011-03-07, 00:40:05,VALID,1001.11,VALID,0,VALID,91.4181,VALID,0,VALID,23.1176,VALID,357,VALID,0.439453,
2011-03-07, 00:41:05,VALID,1001.07,VALID,0,VALID,91.3876,VALID,0,VALID,23.0981,VALID,53,VALID,0.457422,
2011-03-07, 00:42:05,VALID,1001.07,VALID,0,VALID,91.3723,VALID,0,VALID,23.1176,VALID,78,VALID,0.626953,
2011-03-07, 00:43:05,VALID,1001.01,VALID,0,VALID,91.4028,VALID,0,VALID,23.1159,VALID,78,VALID,0.501562,
2011-03-07, 00:44:04,VALID,1001.03,VALID,0,VALID,91.3723,VALID,0,VALID,23.1159,VALID,78,VALID,0.537109,
2011-03-07, 00:45:04,VALID,1001.01,VALID,0,VALID,91.3037,VALID,0,VALID,23.1141,VALID,78,VALID,0.494922,
2011-03-07, 00:46:04,VALID,1000.98,VALID,0,VALID,91.2884,VALID,0,VALID,23.1159,VALID,78,VALID,0.589844,
2011-03-07, 00:47:04,VALID,1000.96,VALID,0,VALID,91.2808,VALID,0,VALID,23.0946,VALID,78,VALID,0.542578,
2011-03-07, 00:48:04,VALID,1000.94,VALID,0,VALID,91.235,VALID,0,VALID,23.1159,VALID,78,VALID,0.535156,
2011-03-07, 00:49:04,VALID,1000.91,VALID,0,VALID,91.2045,VALID,0,VALID,23.0964,VALID,78,VALID,0.630859,
2011-03-07, 00:50:04,VALID,1000.87,VALID,0,VALID,91.2197,VALID,0.112286,VALID,23.0964,VALID,78,VALID,0.705469,
2011-03-07, 00:51:04,VALID,1000.87,VALID,0,VALID,91.2655,VALID,0,VALID,23.0556,VALID,29,VALID,0.896094,
2011-03-07, 00:52:04,VALID,1000.84,VALID,0,VALID,91.2426,VALID,0.112286,VALID,23.0361,VALID,9,VALID,0.586328,
2011-03-07, 00:53:04,VALID,1000.83,VALID,0,VALID,91.2655,VALID,0.112286,VALID,23.0183,VALID,9,VALID,0.625781,
2011-03-07, 00:54:04,VALID,1000.84,VALID,0,VALID,91.3266,VALID,0,VALID,23.0378,VALID,9,VALID,0.563281,
2011-03-07, 00:55:04,VALID,1000.82,VALID,0,VALID,91.3647,VALID,0,VALID,23.0183,VALID,9,VALID,0.633594,
2011-03-07, 00:56:04,VALID,1000.81,VALID,0,VALID,91.38,VALID,0,VALID,22.9988,VALID,9,VALID,0.65,
2011-03-07, 00:57:04,VALID,1000.8,VALID,0,VALID,91.4181,VALID,0,VALID,22.9988,VALID,9,VALID,0.622656,
2011-03-07, 00:58:04,VALID,1000.8,VALID,0,VALID,91.4334,VALID,0,VALID,22.9581,VALID,9,VALID,0.719531,
2011-03-07, 00:59:04,VALID,1000.79,VALID,0,VALID,91.441,VALID,0,VALID,22.9403,VALID,9,VALID,0.703906,
2011-03-07, 01:00:04,VALID,1000.76,VALID,0,VALID,91.5097,VALID,0,VALID,22.9598,VALID,9,VALID,0.517187,
2011-03-07, 01:01:04,VALID,1000.75,VALID,0,VALID,91.5478,VALID,0,VALID,22.919,VALID,9,VALID,0.4125,
2011-03-07, 01:02:04,VALID,1000.74,VALID,0,VALID,91.586,VALID,0,VALID,22.9403,VALID,9,VALID,0.615234,
2011-03-07, 01:03:04,VALID,1000.72,VALID,0,VALID,91.647,VALID,0,VALID,22.9403,VALID,9,VALID,0.464453,
2011-03-07, 01:04:04,VALID,1000.72,VALID,0,VALID,91.7004,VALID,0,VALID,22.9403,VALID,9,VALID,0.461719,
2011-03-07, 01:05:04,VALID,1000.71,VALID,0,VALID,91.7309,VALID,0,VALID,22.9208,VALID,9,VALID,0.458203,
2011-03-07, 01:06:04,VALID,1000.66,VALID,0,VALID,91.7157,VALID,0,VALID,22.8995,VALID,9,VALID,0.521094,
2011-03-07, 01:07:04,VALID,1000.67,VALID,0,VALID,91.7691,VALID,0,VALID,22.9208,VALID,9,VALID,0.487109,
2011-03-07, 01:08:04,VALID,1000.66,VALID,0,VALID,91.7843,VALID,0,VALID,22.9208,VALID,9,VALID,0.484375,
2011-03-07, 01:09:04,VALID,1000.66,VALID,0,VALID,91.8225,VALID,0,VALID,22.9208,VALID,9,VALID,0.442578,
2011-03-07, 01:10:04,VALID,1000.66,VALID,0,VALID,91.8606,VALID,0,VALID,22.9208,VALID,9,VALID,0.388281,
2011-03-07, 01:11:04,VALID,1000.68,VALID,0,VALID,91.8911,VALID,0,VALID,22.9403,VALID,9,VALID,0.444922,
2011-03-07, 01:12:04,VALID,1000.63,VALID,0,VALID,91.9369,VALID,0,VALID,22.9581,VALID,9,VALID,0.418359,
2011-03-07, 01:13:04,VALID,1000.63,VALID,0,VALID,91.9369,VALID,0,VALID,22.9403,VALID,9,VALID,0.439063,
2011-03-07, 01:14:04,VALID,1000.61,VALID,0,VALID,91.9598,VALID,0,VALID,22.9811,VALID,9,VALID,0.401172,
2011-03-07, 01:15:04,VALID,1000.57,VALID,0,VALID,91.9903,VALID,0,VALID,22.9811,VALID,9,VALID,0.294922,
2011-03-07, 01:16:04,VALID,1000.58,VALID,0,VALID,91.9827,VALID,0,VALID,22.9598,VALID,9,VALID,0.0644531,
2011-03-07, 01:17:04,VALID,1000.52,VALID,0,VALID,91.9827,VALID,0,VALID,22.9598,VALID,9,VALID,0,
2011-03-07, 01:18:04,VALID,1000.54,VALID,0,VALID,91.9827,VALID,0,VALID,22.9811,VALID,9,VALID,0,
2011-03-07, 01:19:04,VALID,1000.51,VALID,0,VALID,91.9903,VALID,0,VALID,22.9811,VALID,9,VALID,0,
2011-03-07, 01:20:04,VALID,1000.49,VALID,0,VALID,92.0132,VALID,0,VALID,23.0006,VALID,9,VALID,0,
2011-03-07, 01:21:04,VALID,1000.47,VALID,0,VALID,92.0285,VALID,0,VALID,23.0201,VALID,9,VALID,0.353516,
2011-03-07, 01:22:04,VALID,1000.44,VALID,0,VALID,92.0666,VALID,0,VALID,23.0201,VALID,9,VALID,0.366016,
2011-03-07, 01:23:04,VALID,1000.42,VALID,0,VALID,92.0666,VALID,0,VALID,23.0396,VALID,9,VALID,0.467969,
2011-03-07, 01:24:04,VALID,1000.38,VALID,0,VALID,92.0819,VALID,0,VALID,23.0786,VALID,9,VALID,0.532812,
2011-03-07, 01:25:04,VALID,1000.35,VALID,0,VALID,92.0666,VALID,0,VALID,23.0981,VALID,9,VALID,0.304688,
2011-03-07, 01:26:04,VALID,1000.33,VALID,0,VALID,92.0285,VALID,0,VALID,23.1159,VALID,9,VALID,0.141797,
2011-03-07, 01:27:04,VALID,1000.27,VALID,0,VALID,92.0132,VALID,0,VALID,23.1566,VALID,9,VALID,0.183203,
2011-03-07, 01:28:04,VALID,1000.26,VALID,0,VALID,91.9827,VALID,0,VALID,23.1762,VALID,9,VALID,0.237891,
2011-03-07, 01:29:04,VALID,1000.25,VALID,0,VALID,91.9598,VALID,0,VALID,23.1957,VALID,9,VALID,0,
2011-03-07, 01:30:04,VALID,1000.24,VALID,0,VALID,91.8683,VALID,0,VALID,23.1744,VALID,9,VALID,0.2875,
2011-03-07, 01:31:04,VALID,1000.22,VALID,0,VALID,91.7691,VALID,0,VALID,23.1549,VALID,9,VALID,0.3625,
2011-03-07, 01:32:04,VALID,1000.22,VALID,0,VALID,91.6394,VALID,0,VALID,23.1566,VALID,9,VALID,0.342187,
2011-03-07, 01:33:04,VALID,1000.21,VALID,0,VALID,91.5402,VALID,0,VALID,23.1371,VALID,9,VALID,0.340625,
2011-03-07, 01:34:04,VALID,1000.23,VALID,0,VALID,91.4868,VALID,0,VALID,23.1176,VALID,9,VALID,0.416406,
2011-03-07, 01:35:04,VALID,1000.21,VALID,0,VALID,91.4791,VALID,0,VALID,23.1371,VALID,9,VALID,0.273828,
2011-03-07, 01:36:04,VALID,1000.23,VALID,0,VALID,91.4868,VALID,0,VALID,23.1371,VALID,9,VALID,0.149609,
2011-03-07, 01:37:04,VALID,1000.23,VALID,0,VALID,91.4486,VALID,0,VALID,23.0769,VALID,9,VALID,0.0195313,
2011-03-07, 01:38:04,VALID,1000.22,VALID,0,VALID,91.441,VALID,0,VALID,23.0981,VALID,9,VALID,0,
2011-03-07, 01:39:04,VALID,1000.25,VALID,0,VALID,91.4791,VALID,0,VALID,23.0981,VALID,9,VALID,0,
2011-03-07, 01:40:04,VALID,1000.21,VALID,0,VALID,91.5402,VALID,0,VALID,23.1176,VALID,9,VALID,0,
2011-03-07, 01:41:04,VALID,1000.21,VALID,0,VALID,91.586,VALID,0,VALID,23.1176,VALID,9,VALID,0.233594,
2011-03-07, 01:42:04,VALID,1000.2,VALID,0,VALID,91.6165,VALID,0,VALID,23.1176,VALID,9,VALID,0.244531,
2011-03-07, 01:43:04,VALID,1000.2,VALID,0,VALID,91.6623,VALID,0,VALID,23.1354,VALID,9,VALID,0.239453,
2011-03-07, 01:44:04,VALID,1000.19,VALID,0,VALID,91.6928,VALID,0,VALID,23.1354,VALID,9,VALID,0.373437,
2011-03-07, 01:45:04,VALID,1000.2,VALID,0,VALID,91.6928,VALID,0,VALID,23.1354,VALID,9,VALID,0.434375,
2011-03-07, 01:46:04,VALID,1000.12,VALID,0,VALID,91.708,VALID,0,VALID,23.1159,VALID,9,VALID,0.422656,
2011-03-07, 01:47:04,VALID,1000.14,VALID,0,VALID,91.7614,VALID,0,VALID,23.1549,VALID,9,VALID,0.332031,
2011-03-07, 01:48:04,VALID,1000.11,VALID,0,VALID,91.7996,VALID,0,VALID,23.1549,VALID,9,VALID,0.328125,
2011-03-07, 01:49:04,VALID,1000.06,VALID,0,VALID,91.8301,VALID,0,VALID,23.1354,VALID,9,VALID,0.414453,
2011-03-07, 01:50:04,VALID,1000.08,VALID,0,VALID,91.8377,VALID,0,VALID,23.1549,VALID,9,VALID,0.296484,
2011-03-07, 01:51:04,VALID,1000.08,VALID,0,VALID,91.853,VALID,0,VALID,23.1354,VALID,9,VALID,0.330469,
2011-03-07, 01:52:04,VALID,1000.1,VALID,0,VALID,91.8301,VALID,0,VALID,23.0964,VALID,9,VALID,0.158203,
2011-03-07, 01:53:04,VALID,1000.08,VALID,0,VALID,91.8225,VALID,0,VALID,23.0964,VALID,9,VALID,0.323828,
2011-03-07, 01:54:04,VALID,1000.07,VALID,0,VALID,91.8454,VALID,0,VALID,23.0981,VALID,9,VALID,0.394922,
2011-03-07, 01:55:04,VALID,1000.11,VALID,0,VALID,91.8301,VALID,0,VALID,23.0769,VALID,9,VALID,0.202344,
2011-03-07, 01:56:04,VALID,1000.05,VALID,0,VALID,91.8148,VALID,0,VALID,23.0786,VALID,9,VALID,0.105078,
2011-03-07, 01:57:04,VALID,1000.03,VALID,0,VALID,91.8072,VALID,0,VALID,23.0378,VALID,9,VALID,0,
2011-03-07, 01:58:04,VALID,1000.02,VALID,0,VALID,91.8148,VALID,0,VALID,23.0378,VALID,9,VALID,0.133203,
2011-03-07, 01:59:04,VALID,1000.01,VALID,0,VALID,91.8301,VALID,0,VALID,23.0573,VALID,9,VALID,0.0304688,
2011-03-07, 02:00:04,VALID,1000,VALID,0,VALID,91.8759,VALID,0,VALID,23.0378,VALID,9,VALID,0,
2011-03-07, 02:01:04,VALID,999.999,VALID,0,VALID,91.8683,VALID,0,VALID,23.0378,VALID,9,VALID,0,
2011-03-07, 02:02:04,VALID,999.953,VALID,0,VALID,91.8835,VALID,0,VALID,23.0183,VALID,9,VALID,0,
2011-03-07, 02:03:04,VALID,999.954,VALID,0,VALID,91.8911,VALID,0,VALID,23.0378,VALID,9,VALID,0,
2011-03-07, 02:04:04,VALID,999.952,VALID,0,VALID,91.9369,VALID,0,VALID,23.0378,VALID,9,VALID,0,
2011-03-07, 02:05:04,VALID,999.928,VALID,0,VALID,91.9369,VALID,0,VALID,23.0378,VALID,9,VALID,0,
2011-03-07, 02:06:04,VALID,999.948,VALID,0,VALID,91.9903,VALID,0,VALID,23.0378,VALID,9,VALID,0.100391,
2011-03-07, 02:07:04,VALID,999.945,VALID,0,VALID,92.0056,VALID,0,VALID,23.0769,VALID,9,VALID,0.0105469,
2011-03-07, 02:08:04,VALID,999.956,VALID,0,VALID,92.0132,VALID,0,VALID,23.0981,VALID,9,VALID,0.20625,
2011-03-07, 02:09:04,VALID,999.978,VALID,0,VALID,92.0361,VALID,0,VALID,23.0556,VALID,9,VALID,0.263672,
2011-03-07, 02:10:04,VALID,999.971,VALID,0,VALID,91.9598,VALID,0,VALID,23.0183,VALID,9,VALID,0.4875,
2011-03-07, 02:11:04,VALID,999.998,VALID,0,VALID,91.9217,VALID,0,VALID,22.9988,VALID,9,VALID,0.451562,
2011-03-07, 02:12:04,VALID,999.972,VALID,0,VALID,91.8454,VALID,0,VALID,22.9811,VALID,9,VALID,0.464844,
2011-03-07, 02:13:04,VALID,999.916,VALID,0,VALID,91.7996,VALID,0,VALID,22.8995,VALID,9,VALID,0.44375,
2011-03-07, 02:14:04,VALID,999.948,VALID,0,VALID,91.8225,VALID,0,VALID,22.919,VALID,9,VALID,0.376953,
2011-03-07, 02:15:04,VALID,999.949,VALID,0,VALID,91.7843,VALID,0,VALID,22.9013,VALID,9,VALID,0.473828,
2011-03-07, 02:16:04,VALID,999.927,VALID,0,VALID,91.7233,VALID,0,VALID,22.8427,VALID,9,VALID,0.4625,
2011-03-07, 02:17:04,VALID,999.915,VALID,0,VALID,91.7004,VALID,0,VALID,22.8037,VALID,9,VALID,0.603906,
2011-03-07, 02:18:04,VALID,999.904,VALID,0,VALID,91.7843,VALID,0,VALID,22.8037,VALID,9,VALID,0.638672,
2011-03-07, 02:19:04,VALID,999.875,VALID,0,VALID,91.8454,VALID,0,VALID,22.8037,VALID,69,VALID,0.931641,
2011-03-07, 02:20:04,VALID,999.877,VALID,0,VALID,91.914,VALID,0,VALID,22.8427,VALID,76,VALID,0.910547,
2011-03-07, 02:21:04,VALID,999.844,VALID,0,VALID,91.9674,VALID,0,VALID,22.8818,VALID,88,VALID,0.817578,
2011-03-07, 02:22:04,VALID,999.829,VALID,0,VALID,91.9903,VALID,0,VALID,22.88,VALID,88,VALID,0.715234,
2011-03-07, 02:23:04,VALID,999.85,VALID,0,VALID,91.998,VALID,0,VALID,22.9208,VALID,88,VALID,0.765234,
2011-03-07, 02:24:04,VALID,999.792,VALID,0,VALID,91.9903,VALID,0,VALID,22.9013,VALID,88,VALID,0.869141,
2011-03-07, 02:25:04,VALID,999.788,VALID,0,VALID,91.9827,VALID,0,VALID,22.9013,VALID,88,VALID,0.808594,
2011-03-07, 02:26:04,VALID,999.779,VALID,0,VALID,91.9827,VALID,0,VALID,22.9208,VALID,88,VALID,0.619531,
2011-03-07, 02:27:04,VALID,999.794,VALID,0,VALID,91.9903,VALID,0,VALID,22.9208,VALID,88,VALID,0.471094,
2011-03-07, 02:28:04,VALID,999.769,VALID,0,VALID,91.998,VALID,0,VALID,22.9208,VALID,88,VALID,0.271875,
2011-03-07, 02:29:04,VALID,999.745,VALID,0,VALID,91.9903,VALID,0,VALID,22.8995,VALID,88,VALID,0,
2011-03-07, 02:30:04,VALID,999.733,VALID,0,VALID,91.9751,VALID,0,VALID,22.8605,VALID,88,VALID,0,
2011-03-07, 02:31:04,VALID,999.738,VALID,0,VALID,91.9751,VALID,0,VALID,22.8818,VALID,88,VALID,0,
2011-03-07, 02:32:04,VALID,999.729,VALID,0,VALID,91.9598,VALID,0,VALID,22.8818,VALID,88,VALID,0,
2011-03-07, 02:33:04,VALID,999.681,VALID,0,VALID,91.9751,VALID,0,VALID,22.8835,VALID,88,VALID,0.204297,
2011-03-07, 02:34:04,VALID,999.718,VALID,0,VALID,92.0285,VALID,0,VALID,22.8818,VALID,88,VALID,0.347266,
2011-03-07, 02:35:04,VALID,999.727,VALID,0,VALID,92.059,VALID,0,VALID,22.8818,VALID,88,VALID,0.390625,
2011-03-07, 02:36:04,VALID,999.708,VALID,0,VALID,92.059,VALID,0,VALID,22.8427,VALID,88,VALID,0.0183594,
2011-03-07, 02:37:04,VALID,999.751,VALID,0,VALID,92.059,VALID,0,VALID,22.8445,VALID,88,VALID,0,
2011-03-07, 02:38:04,VALID,999.724,VALID,0,VALID,92.0514,VALID,0,VALID,22.8037,VALID,88,VALID,0,
2011-03-07, 02:39:04,VALID,999.704,VALID,0,VALID,92.0361,VALID,0,VALID,22.7647,VALID,88,VALID,0,
2011-03-07, 02:40:04,VALID,999.723,VALID,0,VALID,92.0666,VALID,0,VALID,22.7647,VALID,88,VALID,0,
2011-03-07, 02:41:04,VALID,999.707,VALID,0,VALID,92.1124,VALID,0,VALID,22.7842,VALID,88,VALID,0.344922,
2011-03-07, 02:42:04,VALID,999.705,VALID,0,VALID,92.1353,VALID,0,VALID,22.7842,VALID,88,VALID,0.379297,
2011-03-07, 02:43:04,VALID,999.692,VALID,0,VALID,92.1658,VALID,0,VALID,22.7842,VALID,88,VALID,0.3625,
2011-03-07, 02:44:04,VALID,999.659,VALID,0,VALID,92.1887,VALID,0,VALID,22.7842,VALID,88,VALID,0.352344,
2011-03-07, 02:45:04,VALID,999.64,VALID,0,VALID,92.2421,VALID,0,VALID,22.7842,VALID,88,VALID,0.380078,
2011-03-07, 02:46:04,VALID,999.625,VALID,0,VALID,92.2421,VALID,0.112286,VALID,22.7842,VALID,88,VALID,0.333203,
2011-03-07, 02:47:04,VALID,999.633,VALID,0,VALID,92.2574,VALID,0,VALID,22.7842,VALID,88,VALID,0.383203,
2011-03-07, 02:48:04,VALID,999.62,VALID,0,VALID,92.2955,VALID,0,VALID,22.7647,VALID,88,VALID,0.499609,
2011-03-07, 02:49:04,VALID,999.673,VALID,0,VALID,92.3108,VALID,0,VALID,22.7647,VALID,88,VALID,0.598047,
2011-03-07, 02:50:04,VALID,999.646,VALID,0,VALID,92.3413,VALID,0,VALID,22.7647,VALID,88,VALID,0.573438,
2011-03-07, 02:51:04,VALID,999.708,VALID,0,VALID,92.3337,VALID,0,VALID,22.7257,VALID,88,VALID,0.595312,
2011-03-07, 02:52:04,VALID,999.713,VALID,0,VALID,92.3337,VALID,0,VALID,22.7062,VALID,88,VALID,0.517969,
2011-03-07, 02:53:04,VALID,999.747,VALID,0,VALID,92.3489,VALID,0,VALID,22.7062,VALID,88,VALID,0.573828,
2011-03-07, 02:54:04,VALID,999.752,VALID,0,VALID,92.3337,VALID,0,VALID,22.6672,VALID,88,VALID,0.589063,
2011-03-07, 02:55:04,VALID,999.777,VALID,0,VALID,92.3794,VALID,0,VALID,22.6672,VALID,88,VALID,0.552344,
2011-03-07, 02:56:04,VALID,999.77,VALID,0,VALID,92.3794,VALID,0,VALID,22.6282,VALID,88,VALID,0.480859,
2011-03-07, 02:57:04,VALID,999.774,VALID,0,VALID,92.41,VALID,0,VALID,22.6282,VALID,88,VALID,0.498047,
2011-03-07, 02:58:04,VALID,999.77,VALID,0,VALID,92.41,VALID,0,VALID,22.6104,VALID,78,VALID,0.657031,
2011-03-07, 02:59:04,VALID,999.777,VALID,0,VALID,92.41,VALID,0,VALID,22.5909,VALID,74,VALID,0.696094,
2011-03-07, 03:00:04,VALID,999.748,VALID,0,VALID,92.4023,VALID,0,VALID,22.5501,VALID,74,VALID,0.728125,
2011-03-07, 03:01:04,VALID,999.732,VALID,0,VALID,92.4023,VALID,0,VALID,22.5519,VALID,74,VALID,0.695703,
2011-03-07, 03:02:04,VALID,999.721,VALID,0,VALID,92.41,VALID,0,VALID,22.5519,VALID,74,VALID,0.633203,
2011-03-07, 03:03:04,VALID,999.701,VALID,0,VALID,92.4176,VALID,0,VALID,22.5323,VALID,74,VALID,0.616406,
2011-03-07, 03:04:04,VALID,999.675,VALID,0,VALID,92.4176,VALID,0,VALID,22.5323,VALID,74,VALID,0.301953,
2011-03-07, 03:05:04,VALID,999.698,VALID,0,VALID,92.41,VALID,0,VALID,22.5128,VALID,74,VALID,0.34375,
2011-03-07, 03:06:04,VALID,999.665,VALID,0,VALID,92.41,VALID,0,VALID,22.5323,VALID,74,VALID,0.447266,
2011-03-07, 03:07:04,VALID,999.645,VALID,0,VALID,92.4176,VALID,0,VALID,22.5909,VALID,74,VALID,0.609375,
2011-03-07, 03:08:04,VALID,999.662,VALID,0,VALID,92.4863,VALID,0,VALID,22.6104,VALID,74,VALID,0.701563,
2011-03-07, 03:09:04,VALID,999.656,VALID,0,VALID,92.4786,VALID,0,VALID,22.6104,VALID,4,VALID,0.427734,
2011-03-07, 03:10:04,VALID,999.631,VALID,0,VALID,92.4863,VALID,0,VALID,22.6121,VALID,4,VALID,0.461328,
2011-03-07, 03:11:04,VALID,999.632,VALID,0,VALID,92.5168,VALID,0,VALID,22.6104,VALID,4,VALID,0.391016,
2011-03-07, 03:12:04,VALID,999.615,VALID,0,VALID,92.5244,VALID,0,VALID,22.6104,VALID,4,VALID,0.304297,
2011-03-07, 03:13:04,VALID,999.619,VALID,0,VALID,92.5091,VALID,0,VALID,22.5892,VALID,4,VALID,0.214062,
2011-03-07, 03:14:04,VALID,999.618,VALID,0,VALID,92.5091,VALID,0,VALID,22.5501,VALID,4,VALID,0.0679687,
2011-03-07, 03:15:04,VALID,999.618,VALID,0,VALID,92.5015,VALID,0,VALID,22.5501,VALID,4,VALID,0,
2011-03-07, 03:16:04,VALID,999.613,VALID,0,VALID,92.5244,VALID,0,VALID,22.5696,VALID,4,VALID,0,
2011-03-07, 03:17:04,VALID,999.578,VALID,0,VALID,92.532,VALID,0,VALID,22.5696,VALID,4,VALID,0,
2011-03-07, 03:18:04,VALID,999.574,VALID,0,VALID,92.532,VALID,0.112286,VALID,22.5679,VALID,4,VALID,0,
2011-03-07, 03:19:04,VALID,999.587,VALID,0,VALID,92.5626,VALID,0,VALID,22.5679,VALID,4,VALID,0,
2011-03-07, 03:20:04,VALID,999.594,VALID,0,VALID,92.5778,VALID,0,VALID,22.5484,VALID,4,VALID,0.261719,
2011-03-07, 03:21:04,VALID,999.579,VALID,0,VALID,92.5854,VALID,0,VALID,22.5892,VALID,4,VALID,0.246094,
2011-03-07, 03:22:04,VALID,999.581,VALID,0,VALID,92.616,VALID,0,VALID,22.6087,VALID,4,VALID,0.113281,
2011-03-07, 03:23:04,VALID,999.601,VALID,0,VALID,92.6007,VALID,0,VALID,22.6282,VALID,4,VALID,0,
2011-03-07, 03:24:04,VALID,999.584,VALID,0,VALID,92.616,VALID,0,VALID,22.6087,VALID,4,VALID,0.139844,
2011-03-07, 03:25:04,VALID,999.565,VALID,0,VALID,92.6236,VALID,0,VALID,22.6282,VALID,4,VALID,0.265234,
2011-03-07, 03:26:04,VALID,999.591,VALID,0,VALID,92.6541,VALID,0,VALID,22.6672,VALID,4,VALID,0.43125,
2011-03-07, 03:27:04,VALID,999.582,VALID,0,VALID,92.6694,VALID,0,VALID,22.6867,VALID,4,VALID,0.178125,
2011-03-07, 03:28:04,VALID,999.617,VALID,0,VALID,92.6694,VALID,0,VALID,22.7062,VALID,4,VALID,0.208984,
2011-03-07, 03:29:04,VALID,999.641,VALID,0,VALID,92.6617,VALID,0,VALID,22.7257,VALID,4,VALID,0.171484,
2011-03-07, 03:30:04,VALID,999.642,VALID,0,VALID,92.6694,VALID,0,VALID,22.7452,VALID,4,VALID,0.358984,
2011-03-07, 03:31:04,VALID,999.657,VALID,0,VALID,92.7151,VALID,0,VALID,22.7647,VALID,4,VALID,0.572656,
2011-03-07, 03:32:04,VALID,999.684,VALID,0,VALID,92.6846,VALID,0.112286,VALID,22.7825,VALID,4,VALID,0.570703,
2011-03-07, 03:33:04,VALID,999.644,VALID,0,VALID,92.7075,VALID,0,VALID,22.7647,VALID,4,VALID,0.695703,
2011-03-07, 03:34:04,VALID,999.625,VALID,0,VALID,92.6923,VALID,0,VALID,22.7452,VALID,4,VALID,0.689453,
2011-03-07, 03:35:04,VALID,999.608,VALID,0,VALID,92.6388,VALID,0,VALID,22.7045,VALID,4,VALID,1.10938,
2011-03-07, 03:36:04,VALID,999.624,VALID,0,VALID,92.5931,VALID,0,VALID,22.6477,VALID,7,VALID,1.09141,
2011-03-07, 03:37:04,VALID,999.63,VALID,0,VALID,92.5702,VALID,0,VALID,22.5696,VALID,9,VALID,0.969531,
2011-03-07, 03:38:04,VALID,999.608,VALID,0,VALID,92.5091,VALID,0,VALID,22.5501,VALID,10,VALID,0.930859,
2011-03-07, 03:39:04,VALID,999.64,VALID,0,VALID,92.4634,VALID,0,VALID,22.5111,VALID,10,VALID,0.964844,
2011-03-07, 03:40:04,VALID,999.641,VALID,0,VALID,92.41,VALID,0,VALID,22.5323,VALID,10,VALID,0.905469,
2011-03-07, 03:41:04,VALID,999.627,VALID,0,VALID,92.3947,VALID,0,VALID,22.5111,VALID,10,VALID,0.996875,
2011-03-07, 03:42:04,VALID,999.631,VALID,0,VALID,92.4176,VALID,0,VALID,22.5306,VALID,19,VALID,0.983594,
2011-03-07, 03:43:04,VALID,999.628,VALID,0,VALID,92.4405,VALID,0,VALID,22.5501,VALID,19,VALID,0.829687,
2011-03-07, 03:44:04,VALID,999.61,VALID,0,VALID,92.4786,VALID,0,VALID,22.5892,VALID,19,VALID,0.848828,
2011-03-07, 03:45:04,VALID,999.616,VALID,0,VALID,92.471,VALID,0,VALID,22.6477,VALID,19,VALID,0.853516,
2011-03-07, 03:46:04,VALID,999.668,VALID,0,VALID,92.471,VALID,0,VALID,22.6282,VALID,19,VALID,0.671875,
2011-03-07, 03:47:04,VALID,999.674,VALID,0,VALID,92.4557,VALID,0,VALID,22.6494,VALID,19,VALID,0.692578,
2011-03-07, 03:48:04,VALID,999.689,VALID,0,VALID,92.4557,VALID,0,VALID,22.5892,VALID,19,VALID,0.555469,
2011-03-07, 03:49:04,VALID,999.677,VALID,0,VALID,92.4328,VALID,0,VALID,22.5306,VALID,19,VALID,0.4,